Simultaneous Nadir Overpasses (SNOs) Predictions

Prediction of SNOs between NOAA-20 and NOAA-19 Satellite Orbit:

Table of predicted SNOs for the next 14.0 days since TLE Epoch: 1/21/2023
Index Date (NOAA-20) Time (NOAA-20) Lat,Lon (NOAA-20) SZA (NOAA-20 ) Date (NOAA-19) Time (NOAA-19) Lat,Lon (NOAA-19) SZA (NOAA-19 ) Distance(km) Time Diff (sec)
1 01/22/2023 09:50:44 -75.41,-162.41 84.34 01/22/2023 09:49:37 -75.42,-165.16 84.10 76.98 67
2 01/22/2023 10:41:39 75.83, 3.55 96.16 01/22/2023 10:40:25 75.86, 3.61 96.20 3.06 74
3 01/22/2023 11:32:23 -75.84, 170.86 83.85 01/22/2023 11:31:27 -75.84, 170.80 83.82 1.97 56
4 01/22/2023 12:23:09 75.84, -21.84 96.15 01/22/2023 12:22:25 75.84, -21.97 96.17 3.61 44
5 01/22/2023 13:13:54 -75.89, 145.32 83.81 01/22/2023 13:13:26 -75.87, 145.38 83.82 2.80 28
6 01/22/2023 14:04:40 75.89, -47.38 96.19 01/22/2023 14:04:24 75.86, -47.39 96.17 3.61 16
7 01/22/2023 14:55:24 -75.89, 119.93 83.82 01/22/2023 14:55:25 -75.89, 119.96 83.83 0.88 1
8 01/22/2023 15:46:09 75.89, -72.77 96.18 01/22/2023 15:46:22 75.88, -72.81 96.17 1.94 13
9 01/22/2023 16:36:53 -75.89, 94.54 83.83 01/22/2023 16:37:23 -75.91, 94.54 83.83 1.38 30
10 01/22/2023 17:27:39 75.90, -98.16 96.17 01/22/2023 17:28:21 75.90, -98.22 96.17 1.72 42
11 01/22/2023 18:18:23 -75.90, 69.15 83.84 01/22/2023 18:19:22 -75.93, 69.12 83.83 3.34 59
12 01/22/2023 19:09:09 75.90,-123.55 96.16 01/22/2023 19:10:20 75.92,-123.64 96.17 3.24 71



Historial Predications of SNOs between NOAA-20 and NOAA-19
